Regional Weather Roundup
Issued by NWS

Home | Current Version | Previous Version | Graphics & Text | Print | Product List | Glossary On
Versions: 1 2 3 4 5 6 7 8 9 10 11 12 13 14 15 16 17 18 19 20 21 22 23 24 25 26 27 28 29 30 31 32 33 34 35 36 37 38 39 40 41 42 43 44 45 46 47 48 49 50
000
ASUS44 KMEG 242310
RWRTN
TENNESSEE HOURLY STATE WEATHER ROUNDUP
NATIONAL WEATHER SERVICE MEMPHIS TN
600 PM CDT SAT JUN 24 2017

TNZ002-004-019-021-049-052-054-088>092-250000-
WEST TENNESSEE

CITY           SKY/WX    TMP DP  RH WIND       PRES   REMARKS
MEMPHIS INTL   PTSUNNY   80  61  52 N13       30.09R
NWS MEMPHIS      N/A     80 N/A N/A MISG        N/A
JACKSON        MOSUNNY   80  60  50 N12       30.08S
SOMERVILLE     SUNNY     79  61  53 N9G16     30.08S
COVINGTON      SUNNY     79  59  50 N13       30.09R
UNION CITY     SUNNY     79  55  44 N12       30.07F
BOLIVAR        MOSUNNY   77  63  61 NW7       30.08S
PARIS          SUNNY     77  57  50 NW9G16    30.07S
HUNTINGDON     SUNNY     79  59  50 VRB6      30.07S
LEXINGTON      MOSUNNY   77  63  61 NW5       30.07S
SELMER         SUNNY     79  63  57 N6        30.07S
SAVANNAH       PTSUNNY   79  63  57 NW8       30.06R
$$

TNZ008-025-027-028-033-062-065-066-250000-
NORTH MIDDLE TENNESSEE

CITY           SKY/WX    TMP DP  RH WIND       PRES   REMARKS
NASHVILLE      PTSUNNY   79  60  52 NW14      30.06S
PORTLAND       MOSUNNY   77  59  53 N9        30.06R
CLARKSVILLE    MOSUNNY   78  57  48 N10       30.06S
SMYRNA         MOSUNNY   79  60  52 N15       30.06R
COOKEVILLE     SUNNY     77  61  57 VRB6      30.05R
GALLATIN       SUNNY     79  59  50 NW12      30.07S
CROSSVILLE     MOSUNNY   76  59  55 NW8       30.08R
$$

TNZ061-075-076-078-094-096-097-250000-
SOUTH MIDDLE TENNESSEE

CITY           SKY/WX    TMP DP  RH WIND       PRES   REMARKS
FAYETTEVILLE   MOSUNNY   81  64  57 N6        30.04S
TULLAHOMA      SUNNY     79  61  53 NW8       30.06R
WINCHESTER     SUNNY     81  63  54 N7          N/A
MCMINNVILLE    SUNNY     79  63  57 NW8       30.05R
COLUMBIA       MOSUNNY   79  61  53 VRB5      30.04S
SHELBYVILLE    SUNNY     79  61  53 NW14G21   30.04S
$$

TNZ017-018-042-046-047-250000-
NORTHEAST TENNESSEE

CITY           SKY/WX    TMP DP  RH WIND       PRES   REMARKS
TRI CITIES     MOSUNNY   83  59  44 NW7       30.00R
ELIZABETHTON   MOSUNNY   81  64  57 NW3       30.00S
$$

TNZ012-013-036-069-073-074-250000-
CENTRAL EAST TENNESSEE

CITY           SKY/WX    TMP DP  RH WIND       PRES   REMARKS
KNOXVILLE      PTSUNNY   83  61  47 W9        30.00R
OAK RIDGE      SUNNY     83  57  41 VRB5      30.03R
DOWNTOWN KNOXV MOSUNNY   84  64  51 VRB3      30.00R
GATLINBURG     PTSUNNY   81  61  50 N3        30.00R
MORRISTOWN     SUNNY     81  61  50 N7G13     30.01R
JACKSBORO      MOSUNNY   79  61  53 VRB5      30.06R
$$

TNZ083-085-099-250000-
SOUTHEAST TENNESSEE

CITY           SKY/WX    TMP DP  RH WIND       PRES   REMARKS
CHATTANOOGA    PTSUNNY   86  63  45 NW13      30.00R
$$

SKY/WX REPORTED AS FAIR MEANS FEW OR NO CLOUDS BELOW
12 THOUSAND FEET.




USA.gov is the U.S. government's official web portal to all federal, state and local government web resources and services.